Temp
-15 -15 -15 -16 -16 -16 -15 -15 -15 -15 -15 -15 -15 -15 -15 -15 -15 -15 -15 -15 -15 -15 -15 -15 -14 -14 -14 -14 -14 -14 -14 -14 -14 -14 -14 -14 -13 -13 -13 -13 -13 -13
-16 -16 -16 -16 -16 -16 -16 -16 -16 -16 -16 -16 -16 -16 -16 -16 -16 -16 -16 -16 -16 -16 -16 -16 -16 -15 -15 -15 -15 -15 -15 -15 -15 -15 -14 -14 -14 -14 -13 -13 -13 -13
-16 -16 -16 -16 -16 -17 -17 -17 -17 -17 -18 -18 -18 -18 -18 -17 -17 -17 -17 -17 -16 -17 -17 -17 -16 -16 -16 -16 -16 -16 -15 -15 -15 -15 -15 -15 -15 -14 -14 -14 -14 -14
-17 -17 -17 -17 -17 -17 -18 -18 -18 -18 -18 -18 -18 -18 -18 -18 -18 -18 -18 -18 -18 -18 -18 -18 -17 -17 -17 -17 -17 -16 -16 -16 -16 -16 -15 -15 -15 -15 -15 -14 -14 -14
-19 -18 -18 -18 -18 -18 -18 -18 -18 -18 -19 -19 -19 -19 -19 -19 -19 -19 -19 -19 -19 -19 -19 -19 -19 -18 -18 -18 -17 -17 -17 -17 -17 -16 -16 -16 -16 -16 -15 -15 -15 -15
-20 -19 -19 -19 -19 -19 -18 -18 -18 -18 -18 -19 -19 -19 -19 -19 -19 -19 -19 -19 -19 -19 -19 -19 -19 -19 -19 -19 -19 -18 -18 -18 -17 -17 -17 -17 -17 -16 -16 -16 -16 -15
-20 -20 -20 -20 -20 -20 -20 -20 -19 -19 -19 -19 -19 -19 -19 -19 -19 -19 -19 -19 -19 -19 -20 -20 -20 -19 -19 -19 -19 -19 -19 -18 -18 -18 -18 -17 -17 -17 -17 -17 -16 -16
-20 -20 -20 -20 -20 -20 -20 -21 -21 -20 -20 -20 -20 -20 -19 -19 -19 -19 -19 -19 -19 -19 -19 -20 -20 -20 -20 -19 -19 -19 -19 -19 -19 -19 -18 -18 -18 -18 -18 -18 -17 -17
-21 -21 -21 -21 -21 -21 -21 -21 -21 -21 -21 -21 -21 -21 -20 -20 -20 -20 -19 -19 -19 -19 -19 -19 -20 -20 -20 -19 -19 -19 -19 -19 -18 -18 -19 -19 -19 -19 -19 -18 -18 -18
-21 -21 -21 -21 -21 -21 -21 -21 -21 -21 -21 -21 -21 -21 -21 -21 -20 -20 -20 -20 -19 -20 -20 -20 -20 -20 -20 -20 -19 -19 -19 -19 -19 -19 -19 -19 -19 -19 -19 -19 -19 -19
-22 -22 -22 -22 -21 -21 -21 -21 -21 -21 -21 -21 -21 -21 -21 -21 -21 -21 -20 -20 -20 -20 -20 -20 -20 -20 -20 -20 -20 -20 -20 -19 -19 -19 -19 -20 -20 -20 -20 -20 -20 -20
-22 -22 -22 -22 -22 -22 -22 -22 -22 -22 -22 -22 -22 -22 -22 -22 -22 -21 -21 -21 -21 -20 -20 -20 -20 -20 -20 -20 -20 -20 -20 -20 -20 -19 -20 -20 -20 -20 -20 -20 -20 -20
-22 -22 -22 -22 -22 -22 -22 -22 -22 -22 -22 -22 -22 -22 -22 -22 -22 -22 -22 -22 -21 -21 -21 -21 -21 -21 -21 -21 -20 -20 -20 -20 -20 -20 -20 -20 -20 -20 -21 -21 -21 -21
-23 -23 -23 -23 -23 -23 -22 -22 -22 -22 -22 -22 -22 -22 -22 -22 -22 -22 -22 -22 -22 -22 -22 -21 -21 -21 -21 -21 -21 -21 -20 -20 -20 -20 -20 -20 -20 -20 -21 -21 -21 -21
-24 -24 -24 -24 -23 -23 -23 -23 -23 -23 -23 -23 -23 -23 -23 -23 -23 -23 -22 -22 -22 -22 -22 -22 -22 -22 -22 -22 -21 -21 -21 -21 -21 -20 -20 -20 -20 -20 -20 -21 -21 -21
-25 -25 -25 -25 -25 -25 -25 -25 -24 -24 -24 -24 -24 -24 -24 -23 -23 -23 -23 -23 -23 -23 -23 -23 -23 -23 -23 -23 -23 -23 -22 -22 -22 -21 -21 -21 -21 -20 -21 -21 -21 -21
-26 -26 -26 -26 -26 -26 -26 -26 -26 -26 -26 -25 -25 -25 -25 -25 -24 -24 -24 -24 -24 -23 -23 -23 -23 -23 -23 -23 -24 -24 -24 -23 -23 -23 -22 -22 -22 -21 -21 -21 -21 -21
-27 -27 -27 -27 -27 -27 -27 -27 -27 -27 -27 -26 -26 -26 -26 -26 -26 -26 -25 -25 -25 -25 -24 -24 -24 -24 -24 -24 -24 -24 -24 -24 -24 -24 -23 -23 -23 -22 -22 -22 -22 -22
-28 -28 -28 -28 -28 -28 -28 -28 -28 -27 -27 -27 -27 -27 -27 -27 -27 -27 -27 -26 -26 -26 -26 -25 -25 -25 -25 -25 -24 -24 -24 -24 -24 -24 -24 -24 -23 -23 -23 -23 -22 -22
-29 -29 -29 -29 -29 -29 -29 -29 -29 -28 -28 -28 -28 -28 -28 -28 -28 -28 -28 -28 -27 -27 -27 -27 -26 -26 -26 -26 -26 -26 -25 -25 -25 -25 -24 -24 -24 -23 -23 -23 -23 -23
-30 -30 -30 -30 -30 -30 -30 -30 -29 -29 -29 -29 -29 -29 -28 -28 -28 -28 -28 -28 -28 -28 -28 -28 -27 -27 -27 -27 -27 -27 -27 -26 -26 -25 -25 -24 -24 -24 -24 -23 -23 -23
-31 -31 -31 -30 -30 -30 -30 -30 -30 -30 -30 -29 -29 -29 -29 -29 -28 -28 -28 -28 -28 -28 -28 -28 -28 -28 -28 -28 -28 -28 -28 -27 -27 -26 -26 -25 -25 -25 -24 -24 -24 -24
-31 -31 -31 -31 -31 -30 -30 -30 -30 -30 -30 -30 -29 -29 -29 -29 -29 -28 -28 -28 -28 -28 -28 -28 -28 -28 -28 -28 -28 -28 -28 -28 -28 -27 -27 -26 -26 -25 -25 -25 -25 -25
-31 -31 -31 -31 -31 -31 -30 -30 -30 -30 -30 -29 -29 -29 -29 -29 -28 -28 -28 -28 -28 -28 -28 -28 -28 -28 -28 -28 -28 -28 -28 -28 -28 -28 -27 -27 -27 -26 -26 -26 -25 -25
-31 -31 -31 -31 -31 -31 -30 -30 -30 -30 -29 -29 -29 -29 -28 -28 -28 -28 -28 -28 -28 -28 -28 -28 -28 -28 -28 -28 -28 -28 -28 -28 -28 -28 -28 -27 -27 -27 -26 -26 -26 -26
-31 -31 -31 -31 -31 -31 -30 -30 -30 -29 -29 -29 -29 -29 -29 -28 -28 -28 -28 -28 -28 -28 -28 -29 -28 -28 -28 -28 -28 -28 -29 -29 -28 -28 -28 -28 -28 -27 -27 -27 -26 -26
Height
5691 5690 5689 5688 5687 5686 5685 5684 5684 5683 5682 5682 5682 5681 5680 5680 5681 5681 5681 5680 5679 5679 5679 5678 5678 5678 5678 5678 5678 5679 5679 5679 5679 5679 5679 5680 5680 5681 5681 5681 5681 5682
5682 5680 5679 5677 5676 5675 5674 5673 5673 5672 5671 5670 5670 5670 5669 5669 5669 5669 5669 5669 5669 5669 5669 5669 5668 5668 5668 5668 5668 5669 5669 5669 5669 5668 5669 5670 5670 5671 5671 5671 5671 5671
5672 5671 5669 5668 5666 5665 5664 5663 5662 5662 5661 5660 5659 5659 5658 5658 5657 5657 5657 5657 5657 5657 5658 5658 5658 5658 5658 5657 5658 5658 5658 5658 5658 5658 5659 5660 5660 5660 5661 5661 5661 5661
5662 5661 5659 5658 5657 5655 5654 5654 5652 5652 5651 5650 5649 5649 5648 5647 5647 5647 5646 5646 5645 5645 5645 5645 5646 5646 5646 5647 5646 5646 5647 5647 5647 5647 5648 5649 5648 5649 5650 5650 5651 5651
5650 5649 5649 5648 5647 5646 5644 5644 5643 5642 5641 5640 5639 5638 5638 5637 5637 5637 5636 5635 5635 5634 5634 5634 5634 5634 5635 5635 5635 5635 5635 5635 5635 5635 5637 5637 5637 5637 5638 5639 5640 5640
5638 5637 5637 5636 5636 5635 5634 5632 5631 5630 5629 5628 5628 5627 5627 5626 5626 5626 5625 5625 5624 5624 5623 5623 5622 5622 5623 5623 5624 5624 5624 5624 5624 5624 5625 5626 5625 5625 5626 5627 5628 5629
5627 5626 5625 5624 5624 5623 5622 5621 5620 5619 5618 5617 5616 5615 5615 5615 5614 5614 5613 5613 5613 5613 5612 5612 5612 5611 5611 5612 5612 5612 5612 5612 5612 5612 5613 5613 5613 5614 5614 5614 5616 5618
5617 5616 5615 5613 5612 5610 5610 5609 5608 5608 5607 5606 5605 5604 5603 5602 5602 5601 5600 5600 5600 5600 5600 5600 5600 5600 5600 5600 5600 5600 5600 5600 5600 5600 5601 5601 5601 5602 5601 5602 5603 5605
5606 5605 5604 5603 5601 5600 5598 5597 5596 5595 5595 5595 5594 5593 5592 5591 5590 5589 5588 5587 5587 5586 5586 5586 5586 5587 5587 5587 5587 5587 5587 5587 5587 5587 5588 5588 5589 5589 5589 5589 5590 5593
5594 5593 5592 5591 5589 5588 5587 5585 5584 5583 5581 5581 5581 5581 5581 5579 5578 5577 5576 5575 5574 5573 5573 5572 5571 5572 5573 5573 5573 5573 5574 5574 5573 5573 5573 5574 5575 5576 5576 5576 5577 5580
5579 5579 5578 5577 5576 5575 5574 5572 5571 5569 5568 5567 5566 5566 5566 5565 5564 5564 5563 5562 5562 5561 5560 5559 5558 5558 5558 5558 5557 5557 5558 5559 5560 5559 5559 5560 5561 5561 5562 5563 5564 5566
5564 5563 5563 5562 5560 5559 5558 5557 5556 5555 5554 5553 5551 5551 5551 5550 5549 5549 5549 5549 5549 5548 5547 5546 5546 5546 5546 5544 5542 5541 5541 5542 5544 5544 5545 5546 5547 5548 5549 5549 5550 5552
5550 5548 5547 5546 5545 5543 5541 5540 5539 5538 5537 5536 5535 5534 5533 5533 5532 5533 5533 5534 5534 5534 5532 5531 5531 5532 5532 5531 5530 5528 5526 5527 5527 5528 5528 5529 5531 5533 5534 5536 5537 5539
5534 5533 5531 5530 5528 5527 5526 5524 5522 5521 5520 5519 5517 5516 5515 5515 5514 5514 5515 5516 5517 5517 5517 5516 5516 5517 5517 5516 5515 5514 5513 5512 5512 5512 5513 5514 5515 5516 5518 5520 5522 5525
5519 5517 5515 5514 5512 5510 5509 5507 5506 5505 5503 5502 5501 5499 5498 5497 5496 5496 5497 5498 5498 5498 5499 5499 5500 5501 5501 5499 5497 5497 5497 5496 5496 5497 5497 5498 5499 5501 5502 5504 5506 5508
5505 5503 5501 5499 5497 5494 5492 5491 5489 5488 5487 5486 5484 5482 5481 5479 5479 5479 5479 5479 5480 5480 5481 5481 5482 5484 5485 5483 5480 5479 5478 5478 5478 5479 5480 5480 5482 5485 5487 5489 5490 5491
5491 5489 5487 5485 5482 5479 5477 5475 5474 5472 5471 5469 5468 5467 5465 5464 5463 5462 5462 5460 5460 5460 5462 5463 5464 5466 5466 5465 5463 5461 5460 5459 5458 5459 5461 5462 5463 5465 5469 5473 5475 5475
5476 5474 5472 5470 5467 5464 5462 5460 5458 5457 5456 5454 5452 5451 5450 5449 5448 5446 5445 5444 5442 5441 5442 5443 5444 5446 5447 5445 5443 5442 5440 5439 5437 5439 5441 5442 5444 5446 5449 5453 5456 5458
5462 5460 5458 5456 5453 5450 5447 5446 5444 5442 5440 5438 5437 5436 5435 5434 5433 5431 5430 5429 5426 5424 5424 5424 5426 5428 5427 5424 5422 5420 5419 5417 5415 5416 5419 5422 5425 5428 5430 5433 5436 5438
5450 5448 5445 5442 5440 5437 5435 5433 5430 5428 5426 5423 5421 5420 5419 5418 5417 5416 5415 5414 5412 5409 5408 5408 5410 5411 5409 5405 5401 5399 5398 5395 5393 5394 5397 5401 5405 5408 5411 5414 5417 5419
5439 5436 5433 5430 5428 5425 5423 5421 5417 5415 5412 5409 5406 5405 5404 5403 5402 5400 5400 5399 5398 5395 5393 5393 5396 5396 5392 5387 5383 5380 5377 5375 5373 5373 5376 5380 5384 5388 5391 5394 5397 5399
5429 5426 5423 5420 5417 5414 5411 5408 5405 5402 5399 5395 5393 5392 5390 5388 5387 5385 5384 5384 5383 5380 5377 5377 5381 5382 5377 5371 5367 5363 5360 5356 5354 5355 5356 5359 5364 5369 5372 5374 5377 5379
5418 5416 5413 5410 5407 5403 5399 5396 5392 5389 5386 5382 5379 5379 5378 5375 5373 5372 5371 5369 5367 5366 5362 5361 5365 5367 5362 5356 5353 5350 5345 5340 5337 5337 5338 5341 5345 5350 5352 5354 5357 5360
5408 5405 5402 5399 5396 5392 5388 5384 5381 5377 5374 5370 5367 5366 5365 5363 5360 5359 5359 5356 5352 5351 5348 5346 5349 5351 5346 5340 5339 5337 5330 5325 5322 5321 5322 5325 5328 5330 5332 5334 5338 5342
5399 5395 5392 5388 5385 5381 5376 5373 5369 5366 5363 5359 5356 5353 5352 5350 5347 5345 5345 5343 5338 5336 5335 5332 5333 5335 5330 5325 5326 5323 5317 5312 5309 5307 5308 5310 5311 5312 5314 5317 5321 5325
5389 5385 5382 5377 5373 5370 5366 5361 5358 5355 5352 5348 5346 5342 5339 5337 5335 5333 5332 5331 5327 5325 5324 5321 5320 5321 5318 5314 5313 5311 5305 5300 5297 5295 5295 5295 5294 5295 5298 5302 5305 5308
Wind_Speed
68 69 70 71 72 73 73 74 75 75 75 73 72 72 73 72 71 70 69 69 68 68 69 69 70 70 70 70 70 69 68 68 68 68 68 68 68 68 69 69 70 70
70 71 73 74 75 75 76 76 77 77 77 77 75 75 74 74 74 73 72 70 69 68 68 69 70 71 72 72 72 72 72 71 71 71 71 71 71 71 71 72 73 73
73 75 76 77 77 77 77 77 78 78 78 78 77 76 75 74 75 75 75 74 73 72 71 71 71 72 72 73 74 74 74 74 74 74 74 74 74 74 75 75 76 76
74 78 80 81 81 81 80 80 80 80 80 79 78 77 76 75 74 74 74 75 75 74 73 73 73 73 74 74 75 75 76 76 76 77 77 77 77 78 78 78 78 79
67 72 77 81 83 84 83 83 83 82 81 80 79 78 76 75 75 75 76 76 76 75 74 74 74 74 75 75 76 77 78 78 79 79 79 79 80 80 81 81 81 81
63 64 67 72 76 79 80 81 80 80 81 81 80 79 77 76 77 77 79 80 79 78 76 76 76 77 77 77 78 78 79 80 81 82 81 81 81 82 83 83 83 83
67 67 68 69 70 71 73 75 76 77 79 81 82 83 83 82 81 80 80 80 80 80 79 79 79 80 80 80 81 81 81 81 82 82 82 82 83 83 83 84 84 84
75 75 76 76 75 74 74 75 77 79 81 83 85 88 88 88 88 86 85 84 83 82 82 81 81 81 82 83 84 84 84 84 84 84 83 83 82 82 83 83 84 84
82 82 83 83 83 83 82 82 83 85 85 86 86 87 87 87 87 88 89 90 89 88 86 85 84 85 85 86 87 88 88 88 87 87 86 85 84 83 82 82 82 83
87 88 88 89 90 90 91 91 91 91 91 91 92 91 91 90 89 90 91 93 94 93 91 89 90 91 92 92 91 92 92 92 92 90 89 88 87 86 85 84 83 82
90 90 91 92 93 94 95 96 96 97 97 97 98 98 98 98 97 96 96 96 97 97 97 96 96 97 97 98 97 96 96 97 97 96 94 92 90 89 88 88 87 85
93 93 93 93 94 95 96 97 98 99 100 100 101 101 101 101 100 100 100 100 100 102 103 104 103 101 100 101 102 102 101 101 101 101 100 99 97 95 93 92 91 91
96 96 96 97 97 98 99 99 100 101 102 102 103 103 103 103 103 103 103 103 103 104 106 107 107 106 104 104 104 105 106 106 106 105 105 105 103 102 100 98 97 96
101 101 102 102 102 102 103 103 104 104 105 105 105 106 106 106 106 107 106 106 106 106 107 108 108 109 108 108 108 108 108 109 110 109 109 109 109 108 106 104 102 100
105 106 106 107 107 107 107 108 108 108 108 109 109 109 110 110 110 109 109 109 108 108 108 108 109 109 109 110 111 111 111 112 113 113 113 113 113 113 112 111 109 107
104 105 105 106 106 107 107 108 109 109 110 110 111 111 112 112 113 113 113 112 112 111 111 110 109 109 108 109 110 110 111 112 113 114 115 116 117 117 116 115 114 113
99 99 99 99 100 101 102 103 103 104 105 106 107 108 109 110 111 112 113 113 114 114 114 113 112 111 110 110 110 110 110 111 112 113 114 115 116 117 117 116 115 114
91 91 91 92 92 93 94 95 96 97 98 98 99 100 101 102 104 105 107 108 110 111 112 112 113 113 112 112 112 112 112 112 113 114 114 114 115 115 115 115 115 114
84 84 85 85 86 87 88 89 90 90 91 92 92 93 94 94 95 96 97 99 101 103 105 106 107 108 108 109 111 112 112 113 114 115 115 115 116 116 116 115 115 115
79 79 80 80 81 82 83 84 85 85 86 87 88 88 89 89 89 90 90 91 92 94 96 97 98 99 100 102 104 106 108 110 112 114 115 115 116 116 116 117 116 116
76 76 77 78 79 80 80 81 82 82 83 84 85 86 86 86 86 86 86 86 87 88 89 90 90 90 92 94 97 99 101 104 107 109 111 112 113 114 115 116 116 117
75 76 77 78 79 80 80 81 82 82 83 83 84 84 84 84 84 84 84 83 83 84 85 85 84 84 86 89 91 93 96 99 101 103 105 107 107 108 109 110 112 114
76 78 78 79 80 80 81 81 81 81 81 82 82 81 80 80 80 80 80 80 81 81 82 82 81 80 82 85 87 89 92 94 96 98 99 100 101 101 102 103 104 106
78 78 78 78 78 78 79 79 79 79 79 79 79 78 78 77 78 77 76 77 78 78 79 80 78 77 80 82 83 85 88 91 93 94 95 95 95 96 96 97 97 98
76 76 76 77 77 77 78 78 78 78 78 77 77 76 75 75 74 74 72 72 73 73 73 73 72 71 72 74 75 77 81 85 87 90 91 92 93 93 93 93 92 92
75 75 76 77 77 77 77 77 76 75 74 73 72 71 70 68 67 65 63 62 61 60 59 60 60 60 61 63 65 67 70 74 77 79 82 84 86 89 90 90 90 89
Wind_Direction
268 269 270 270 270 271 271 271 272 272 272 272 272 272 272 271 270 268 267 267 267 267 267 268 268 269 269 269 268 268 266 265 264 264 264 264 264 264 264 264 264 264
264 265 266 267 268 268 269 270 271 272 272 272 272 272 271 271 271 270 269 267 266 265 265 265 265 266 266 267 267 266 266 265 263 263 262 262 262 262 262 262 263 263
260 262 263 264 265 265 267 268 269 269 270 271 272 272 271 271 271 271 270 269 268 267 265 264 264 264 264 264 264 264 263 263 262 262 261 261 261 261 260 260 261 261
259 259 259 260 262 263 264 266 267 268 268 268 269 269 270 270 270 270 270 270 270 269 268 267 265 264 263 263 262 262 261 261 260 260 260 260 260 259 259 259 259 260
265 262 260 259 260 261 262 263 264 265 266 266 267 267 267 267 267 267 268 269 269 269 268 268 267 265 264 263 262 261 260 260 259 259 258 258 258 258 258 258 258 259
269 268 267 265 263 263 263 263 263 264 264 264 265 266 266 267 266 266 267 266 266 266 265 265 265 265 265 264 263 262 261 260 259 258 258 258 258 258 258 258 257 257
266 266 266 266 265 265 264 264 263 264 264 265 265 266 267 267 267 266 266 265 264 263 263 262 263 263 263 263 262 262 261 260 260 259 258 258 258 258 259 259 258 258
267 266 265 264 264 265 265 265 265 265 265 266 267 268 269 269 268 266 266 265 264 263 262 261 261 262 261 262 262 261 260 260 259 259 259 259 259 258 259 259 259 259
270 269 268 267 267 267 267 268 268 268 268 268 268 268 268 267 267 265 265 264 264 264 264 262 262 262 261 260 260 260 260 260 259 259 258 258 258 259 259 260 260 260
273 272 270 269 269 268 268 268 268 268 268 268 268 267 266 265 264 263 263 262 263 264 264 264 264 264 263 262 260 259 259 260 261 262 262 261 261 261 260 261 261 261
276 274 273 271 270 269 269 268 268 268 268 268 268 268 267 266 266 265 264 263 262 262 262 263 264 265 265 265 265 263 261 261 261 263 264 265 265 265 264 264 264 264
277 276 275 274 273 273 272 271 270 270 269 269 269 269 268 267 267 266 265 264 263 263 263 264 264 264 263 263 265 266 266 265 264 264 265 266 267 267 267 267 267 267
277 277 276 276 275 275 274 274 273 273 272 272 272 271 270 270 269 268 267 266 265 265 265 265 265 265 264 263 263 263 264 265 265 265 266 266 267 268 268 268 268 268
278 277 277 276 276 275 275 274 274 274 273 273 273 273 273 272 272 271 270 269 269 268 267 267 267 267 267 266 265 264 263 263 264 264 264 265 266 267 268 268 268 268
279 279 278 278 278 277 276 276 275 274 274 274 273 273 273 273 272 272 272 271 271 270 270 269 269 268 268 268 267 267 266 265 264 264 264 264 264 265 266 267 268 268
279 279 278 278 278 278 277 277 277 276 276 275 275 274 274 274 273 273 272 272 271 271 270 270 270 269 269 269 269 268 268 267 266 265 264 264 264 264 264 265 266 266
279 278 278 278 278 277 277 277 277 276 276 276 276 275 275 275 275 274 274 273 273 272 271 271 270 270 270 269 269 269 268 267 267 266 265 265 264 263 263 263 263 263
280 280 279 279 279 278 278 277 277 277 277 276 276 276 276 276 275 275 275 275 274 274 273 272 272 271 271 270 270 269 269 268 267 266 265 265 264 264 263 263 262 262
283 283 282 282 281 281 280 280 280 279 279 278 278 277 277 277 276 276 276 275 275 275 274 274 273 273 272 272 271 270 270 269 268 267 265 265 264 263 263 263 262 262
286 286 285 285 284 284 284 283 283 282 282 281 280 280 279 278 278 277 277 276 276 276 275 275 274 274 274 273 272 271 270 270 269 267 266 265 264 264 263 262 262 261
288 288 288 287 287 286 286 286 285 285 284 283 283 282 281 280 280 279 278 277 277 276 276 275 274 274 274 273 273 272 271 270 269 268 267 266 265 264 263 263 262 261
289 289 289 288 288 288 288 287 287 286 285 285 284 283 283 282 282 281 280 279 278 278 277 276 275 274 273 273 272 272 272 271 271 270 269 268 266 265 264 264 263 262
290 289 289 289 289 289 289 288 288 287 287 286 285 285 284 284 283 282 282 281 280 279 278 278 277 275 274 273 273 273 272 272 271 271 270 269 268 267 265 264 263 262
291 291 291 291 291 290 290 290 289 289 288 288 287 287 286 285 284 284 283 282 281 280 280 279 278 277 275 274 273 272 272 272 271 271 271 270 269 268 266 265 263 262
292 292 292 292 292 292 291 291 291 290 290 289 289 289 288 287 286 285 284 283 283 282 281 281 280 279 277 276 275 274 273 272 272 272 271 271 270 269 268 267 265 264
293 293 294 294 294 294 293 293 293 292 292 292 291 290 289 288 288 287 286 285 285 285 284 284 283 282 280 279 278 277 275 274 273 273 272 271 270 270 269 268 267 265